Hyderabad, India

3:44 AM IST on May 01, 2017 (GMT +0530)
Hyderabad

Weather History for VOHY - November, 2012

Change the Weather History Date:

Tuesday, November 13, 2012

  Actual Average Record
Temperature  
Mean Temperature 72 °F -  
Max Temperature 85 °F 81 °F 92 °F (2015)
Min Temperature 58 °F 62 °F 57 °F (2005)
Cooling Degree Days 6    
Growing Degree Days 22 (Base 50)    
Moisture  
Dew Point 47 °F    
Average Humidity 39    
Maximum Humidity 81    
Minimum Humidity 17    
Precipitation  
Precipitation 0.00 in 0.02 in - ()
Sea Level Pressure  
Sea Level Pressure 29.99 in    
Wind  
Wind Speed 4 mph ()    
Max Wind Speed 9 mph    
Max Gust Speed -    
Visibility 3.5 miles    
Events      
Averages and records for this station are not official NWS values.
T = Trace of Precipitation, MM = Missing Value Source: Averaged Metar Reports

Daily Weather History Graph

Daily Weather History Graph

Search for Another Location

Airport or City:

Trip Planner

Search our weather history database for the weather conditions in past years. The results will help you decide how hot, cold, wet, or windy it might be!

Date:

Astronomy

Nov. 13, 2012 Rise Set
Actual Time 6:20 AM IST 5:40 PM IST
Civil Twilight 5:57 AM IST 6:03 PM IST
Nautical Twilight 5:31 AM IST 6:29 PM IST
Astronomical Twilight 5:05 AM IST 6:55 PM IST
Moon 5:27 AM IST (11/13) 5:10 PM IST (11/13)
Length of Visible Light 12h 05m
Length of Day
11h 20m
Waning Crescent, 1% of the Moon is Illuminated
Nov 13
Waning Crescent
Nov 14
New
Nov 20
First Quarter
Nov 28
Full
Dec 6
Last Quarter

Hourly Weather History & Observations

Time (IST) Temp. Dew Point Humidity Pressure Visibility Wind Dir Wind Speed Gust Speed Precip Events Conditions
2:30 AM 61 °F 56 °F 78% 30.00 in 2 mi Calm Calm - -   Haze
5:30 AM 59 °F 55 °F 81% 29.97 in 2 mi Calm Calm - -   Haze
7:10 AM 57.2 °F 50.0 °F 77% 30.06 in 1.9 mi Calm Calm - N/A   Haze
8:30 AM 72 °F 55 °F 45% 30.01 in 1 mi ESE 3.5 mph - -   Haze
11:10 AM 80.6 °F 50.0 °F 34% 30.09 in 3.7 mi ESE 9.2 mph - N/A   Unknown
11:30 AM 81 °F 53 °F 28% 29.96 in 6 mi East 9.2 mph - -  
12:10 PM 82.4 °F 42.8 °F 25% 29.92 in 3.7 mi East 9.2 mph - N/A   Unknown
1:10 PM 84.2 °F 44.6 °F 25% 30.04 in 3.7 mi East 6.9 mph - N/A   Unknown
2:30 PM 84 °F 47 °F 17% 29.88 in 6 mi East 4.6 mph - -   Clear
2:40 PM 84.2 °F 41.0 °F 22% 29.98 in 5.0 mi NE 9.2 mph - N/A   Unknown
3:10 PM 84.2 °F 41.0 °F 22% 29.98 in 5.0 mi East 9.2 mph - N/A   Unknown
4:10 PM 82.4 °F 39.2 °F 21% 29.98 in 5.0 mi NE 9.2 mph - N/A   Unknown
5:10 PM 80.6 °F 41.0 °F 24% 29.98 in 5.0 mi NE 6.9 mph - N/A   Unknown
5:30 PM 79 °F 49 °F 24% 29.89 in 6 mi East 4.6 mph - -   Clear
7:10 PM 71.6 °F 42.8 °F 35% 30.01 in 3.1 mi NE 4.6 mph - N/A   Haze
8:10 PM 69.8 °F 42.8 °F 38% 30.04 in 3.1 mi NE 5.8 mph - N/A   Haze
8:30 PM 69 °F 53 °F 46% 29.97 in 1 mi NE 3.5 mph - -   Smoke
9:10 PM 68.0 °F 42.8 °F 40% 30.06 in 3.1 mi Variable 2.3 mph - N/A   Haze
11:30 PM 64 °F 54 °F 63% 30.00 in 1 mi Calm Calm - -   Smoke